Flag for Indonesia Weather past 2 weeks in Manado, North Sulawesi, Indonesia

Now
81 °F

Passing clouds.


Feels Like: 82 °F
Forecast: 80 / 90 °F
Wind: 14 mph from South

Location: Menado / Dr. Sam Ratulangi

Current Time: Jul 4, 2015 at 2:23:46 AM

Latest Report: Jul 4, 2015 at 2:00 AM


Visibility: N/A

Pressure: 29.80 "Hg

Humidity: 54%

Dew point: 63 °F

Location of ManadoLocation

Historic Weather in Manado — Graph

°F

Manado temperature yesterday

Maximum temperature yesterday: 90 °F (at 1:30 PM)
Minimum temperature yesterday: 81 °F (at 2:00 AM)
Average temperature yesterday: 84 °F

Past Weeks' High & Low Weather Summary

 TemperatureHumidityPressure
High91 °F (Jun 25, 1:30 PM)100% (Jun 19, 5:30 AM)29.98 "Hg (Jun 19, 5:30 AM)
Low72 °F (Jun 19, 5:30 AM)45% (Jul 2, 11:00 PM)29.74 "Hg (Jun 20, 5:00 PM)
Average83 °F71%29.87 "Hg
* Reported Jun 19 2:00 AM — Midnight between Jul 3 and Jul 4, Manado, Weather by CustomWeather, © 2015

Note: Actual official high and low records may vary slightly from our data, if they occured in-between our weather recording intervals... More about our weather records

Advertising

Manado weather history for previous 24 hours

 ConditionsComfort  
Time TempWeatherWind HumidityBarometerVisibility
12:00 AM
Sat, Jul 4
81 °FPassing clouds.16 mph54%29.80 "HgN/A
11:30 PM
Fri, Jul 3
81 °FPassing clouds.15 mph51%29.83 "HgN/A
11:00 PM81 °FPassing clouds.15 mph48%29.83 "HgN/A
10:30 PM81 °FPassing clouds.16 mph48%29.83 "HgN/A
10:00 PM81 °FPassing clouds.15 mph51%29.83 "HgN/A
9:30 PM81 °FPassing clouds.15 mph51%29.83 "HgN/A
9:00 PM81 °FPassing clouds.13 mph51%29.83 "HgN/A
8:30 PM81 °FPassing clouds.14 mph54%29.83 "HgN/A
8:00 PM81 °FPassing clouds.7 mph58%29.83 "HgN/A
7:30 PM81 °FPassing clouds.15 mph62%29.80 "HgN/A
7:00 PM82 °FPassing clouds.14 mph58%29.80 "HgN/A
6:30 PM82 °FPassing clouds.12 mph58%29.80 "HgN/A
6:00 PM82 °FPassing clouds.12 mph58%29.80 "HgN/A
5:30 PM84 °FPassing clouds.13 mph58%29.77 "HgN/A
5:00 PM84 °FPassing clouds.13 mph58%29.77 "HgN/A
4:30 PM86 °FPassing clouds.15 mph55%29.77 "HgN/A
4:00 PM86 °FPassing clouds.13 mph52%29.77 "HgN/A
3:30 PM86 °FPassing clouds.14 mph52%29.74 "HgN/A
3:00 PM86 °FPassing clouds.17 mph55%29.74 "HgN/A
2:30 PM88 °FPassing clouds.15 mph52%29.74 "HgN/A
2:00 PM90 °FPassing clouds.15 mph46%29.77 "HgN/A
1:30 PM90 °FPassing clouds.17 mph46%29.77 "HgN/A
1:00 PM88 °FPassing clouds.17 mph49%29.80 "HgN/A
12:30 PM88 °FPassing clouds.15 mph49%29.80 "HgN/A
12:00 PM88 °FPassing clouds.16 mph49%29.83 "HgN/A
11:30 AM88 °FPassing clouds.18 mph49%29.83 "HgN/A
11:00 AM88 °FScattered clouds.17 mph52%29.86 "HgN/A
10:30 AM86 °FPassing clouds.18 mph52%29.86 "HgN/A
10:00 AM86 °FPassing clouds.18 mph55%29.86 "HgN/A
9:30 AM88 °FPassing clouds.16 mph52%29.86 "HgN/A
9:00 AM86 °FPassing clouds.20 mph52%29.86 "HgN/A
8:30 AM84 °FPassing clouds.20 mph51%29.86 "HgN/A
8:00 AM84 °FPassing clouds.20 mph48%29.86 "HgN/A
7:30 AM82 °FPassing clouds.16 mph51%29.86 "HgN/A
7:00 AM82 °FPassing clouds.20 mph45%29.86 "HgN/A
6:30 AM82 °FPassing clouds.18 mph45%29.86 "HgN/A
6:00 AM82 °FPassing clouds.18 mph45%29.83 "HgN/A
5:30 AM82 °FPassing clouds.13 mph48%29.83 "HgN/A
5:00 AM81 °FPassing clouds.14 mph51%29.83 "HgN/A
2:00 AM81 °FPassing clouds.10 mph54%29.83 "HgN/A
Weather by CustomWeather, © 2015

See weather overviewHow to use our weather pages